Regional Weather Roundup
Issued by NWS

Home | Current Version | Previous Version | Text Only | Print | Product List | Glossary Off
Versions: 1 2 3 4 5 6 7 8 9 10 11 12 13 14 15 16 17 18 19 20 21 22 23 24 25 26 27 28 29 30 31 32 33 34 35 36 37 38 39 40 41 42 43 44 45 46 47 48 49 50

000
ASUS44 KMEG 301000
RWRTN
TENNESSEE HOURLY STATE WEATHER ROUNDUP
NATIONAL WEATHER SERVICE MEMPHIS TN
500 AM CDT SAT JUL 30 2016

TNZ002-004-019-021-049-052-054-088>092-301100-
WEST TENNESSEE

CITY           SKY/WX    TMP DP  RH WIND       PRES   REMARKS
MEMPHIS INTL   CLOUDY    73  70  90 CALM      29.97R FOG
NWS MEMPHIS      N/A     71 N/A N/A MISG        N/A
JACKSON        CLOUDY    72  71  97 W3        29.98R
DYERSBURG      PTCLDY   N/A N/A N/A MISG        N/A
PARIS          MOCLDY    68  68 100 CALM      29.98R
LEXINGTON      CLOUDY    70  70 100 CALM      29.98R
$$

TNZ008-025-027-028-033-062-065-066-301100-
NORTH MIDDLE TENNESSEE

CITY           SKY/WX    TMP DP  RH WIND       PRES   REMARKS
NASHVILLE      CLOUDY    74  71  91 CALM      29.99R
CLARKSVILLE    PTCLDY    71  69  93 SW3       29.96R
SMYRNA         CLOUDY    72  72 100 CALM      29.99S
COOKEVILLE     PTCLDY    72  72 100 CALM      30.00R
CROSSVILLE     CLOUDY    70  69  97 CALM      30.04R
$$

TNZ061-075-076-078-094-096-097-301100-
SOUTH MIDDLE TENNESSEE

CITY           SKY/WX    TMP DP  RH WIND       PRES   REMARKS
TULLAHOMA      CLEAR     70  68  94 CALM      30.02R
WINCHESTER     PTCLDY    72  70  94 CALM      30.01R
MCMINNVILLE    CLEAR     72  72 100 CALM      30.01R
COLUMBIA       CLOUDY   N/A N/A N/A CALM      29.99R
SHELBYVILLE    CLEAR     72  70  94 CALM      30.01R
$$

TNZ017-018-042-046-047-301100-
NORTHEAST TENNESSEE

CITY           SKY/WX    TMP DP  RH WIND       PRES   REMARKS
TRI CITIES     CLOUDY    68  67  96 CALM      30.03R FOG
$$

TNZ012-013-036-069-073-074-301100-
CENTRAL EAST TENNESSEE

CITY           SKY/WX    TMP DP  RH WIND       PRES   REMARKS
KNOXVILLE      MOCLDY    73  70  90 CALM      30.00R
OAK RIDGE      PTCLDY    74  70  87 CALM      30.01R
GATLINBURG     MOCLDY    68  66  94 CALM      30.00R
$$

TNZ083-085-099-301100-
SOUTHEAST TENNESSEE

CITY           SKY/WX    TMP DP  RH WIND       PRES   REMARKS
CHATTANOOGA    PTCLDY    75  71  87 S3        29.99R
$$

SKY/WX REPORTED AS FAIR MEANS FEW OR NO CLOUDS BELOW
12 THOUSAND FEET.





USA.gov is the U.S. government's official web portal to all federal, state and local government web resources and services.